Showing default

SOLRAD 7A, 730

Orbit data source: Space-Track

SOLRAD 7A, 730 is an American payload satellite in LEO that was launched on Sat, 11 Jan 1964 UTC via a THOR SLV-2A AGENA D launch vehicle from the Air Force Western Test Range (AFWTR). Payload-class satellites include a variety of spacecraft equipped with specific instruments for various scientific and technological missions. These include communications satellites like Starlink; space stations such as the ISS; scientific satellites like the Hubble; Earth observation satellites from companies like Planet Labs, Umbra, and HawkEye 360; GPS; miniature CubeSats for education and research; and military/defense satellites.

Loading next visibility...
Identifier
730, 1964-001D
Orbit
LEO
Country
Flag of USUS
Related business
Manufacturer
NRL
Mission
Civil Astronomy
Bus & Motor
NRL 24", Unknown motor
Mass
40 kg wet, 40 kg dry
Launch date (UTC)
1964-01-11 (62 years ago)
Launch vehicle
THOR SLV-2A AGENA D
Launch site
Air Force Western Test Range (AFWTR)
Object type
Payload
Rocket body
Debris
Shape & HBR
Sphere, 0.3 m
Radar Cross Section
0.283 m², Medium (>0.1 m² and < 1m²)

Expand to show TLE details & history
Last TLE update: 22 hours ago

TLE from 22 hours ago
0 SOLRAD 7A
1 00730U 64001D   25242.10426564  .00000067  00000-0  87987-4 0  9990
2 00730  69.9063 182.0009 0012001  36.9632 334.1403 13.95997608 20016
Epoch: 2025-08-30T02:30Z
TLE epoch observation values (Epoch: 2025-08-30T02:30:08.551Z)
Latitude
10.32219°
Longitude
169.72216°
Altitude
901.38 km
Speed
7.406 km/s
True Right ascension
12h 23m 12s
True Declination
10° 15' 47"
Sunlit
Object was in daylight at epoch
Visualization orbit readout
Latitude
Unknown
Longitude
Unknown
Altitude
Unknown
Speed
Unknown
Apparent Right ascension
Unknown
Apparent Declination
Unknown
Sunlit
N/A
Visualization observer readout
Local Sidereal Time
15:57:55
Azimuth
Unknown
Elevation
Unknown
Doppler factor
Unknown
Orbital elements
Apogee altitude
914.482 km
Perigee altitude
896.999 km
Semi-major axis
7,283.877 km
Eccentricity
0.0012
Inclination
69.9063°
RAAN
182.0009°
Arg. of periapsis
36.9632°
True anomaly
334.08024°
Mean anomaly
334.1403°
Eccentric anomaly
334.11028°
Mean motion
3.4914 °/min
Orbital period
103.11 mins
BSTAR
0.000087987
Loading maneuver chart data...
Computing Atmospheric mass density...
Loading historical data...
Loading historical data...
Loading historical data...
Loading historical data...
Loading historical data...
Loading historical data...
Loading historical data...
Other satellites on launch #1 in the year 1964 (1964-01-11 UTC)

Documentation

Showing up to 5 results
|